CAPE
118 141 89 44 19 302 570 1045 1960 2061 1724 1406 1410 909 1518 1737 1702 2400 1762 1370 904 2597 2443 2713 2563 2123 1362 540 3235 2745 1972 2362 1429 2654 1765 1613 826 737 1295 1070 931 1213 1374
71 184 121 191 167 357 582 1314 1913 2257 2058 1462 2134 867 2239 2082 1388 1567 2313 1864 1969 2577 2248 1774 2391 1888 2173 2891 2667 2402 2019 2279 1220 2001 1888 794 1293 858 490 1124 945 1163 898
101 159 117 265 198 254 566 1150 1991 2119 1890 2481 2303 1545 317 650 324 443 1943 2379 2413 2442 2450 2642 2915 766 2630 2762 2656 2100 1106 2627 1241 1485 2405 1295 1261 1675 859 840 908 871 1464
54 94 308 381 327 159 588 1125 1741 2005 1578 2482 1937 2531 1994 1304 2055 2114 2200 2398 2321 2302 1899 2888 3026 2419 875 1025 2980 2145 1943 1904 2165 1524 1281 1816 2191 2504 1311 1286 816 1586 675
268 91 115 420 447 182 270 897 1292 2287 1660 2181 2558 2283 2063 1655 1101 1447 1016 1877 2682 2302 1805 2612 3006 2021 916 533 1839 2729 2883 2918 1990 519 2419 2079 2598 2514 3019 1042 978 1360 1017
371 340 132 442 356 187 11 725 1304 2315 2536 1963 2358 2673 1991 492 234 1682 788 2379 2073 2487 2122 2057 2982 2319 1013 1445 1109 2674 2303 3361 3609 2778 2657 2627 1954 2014 2090 1746 1405 1594 1640
696 481 230 573 482 45 117 1045 1755 2266 2099 1880 2078 2325 2248 2169 1074 1190 643 2019 1296 1823 2602 3403 3449 2295 2660 2163 2564 3193 3159 2425 2816 3944 2458 2603 1656 2430 1980 2831 2106 1869 1488
646 651 489 826 435 171 225 1220 1993 2258 2359 2248 2613 2526 2665 1995 1633 713 1731 1120 326 1303 2102 2417 2930 2915 2650 2695 2911 2856 2748 2969 2598 2635 2913 2954 2097 2651 1443 2850 2490 2449 2491
513 354 756 940 456 568 284 1275 2252 2597 2599 2383 2800 2718 2545 2294 2486 2568 3304 1543 635 1724 1524 2138 2569 2709 2001 3076 2801 1935 2514 2486 2390 3175 2743 2854 1799 2178 1802 2366 2585 2323 2477
467 295 323 450 340 747 380 1303 2217 2571 2611 2417 2584 2731 2769 2979 2838 2997 3087 2817 951 386 343 534 1529 2784 2104 2290 2609 2735 1292 2114 1701 1978 2819 3080 1027 2632 2347 1955 2528 2488 2600
263 267 270 315 343 366 327 164 1933 2534 2677 2628 2545 2543 2605 2780 2827 2833 3232 2870 2394 1007 434 91 663 1419 2734 3045 2972 2205 1847 2275 2392 3174 2794 2866 2908 2296 2963 2377 2660 2471 2861
200 43 0 27 298 251 185 309 267 866 2215 2439 2574 2634 2798 2771 2920 2873 2868 3315 3148 2959 971 733 1104 1454 2456 2515 2862 2413 2095 2093 2568 2776 2428 2771 2385 3218 3304 2855 2822 3264 3117
221 218 117 240 117 152 179 237 229 274 558 1264 2499 2592 2534 2820 2833 3131 2910 3163 3237 3145 2555 2655 3267 3096 2424 2679 2368 2858 2826 2155 2308 2971 3135 2851 3133 3028 2645 3524 3304 2603 2913
261 231 187 199 216 150 142 222 134 130 214 569 951 1443 2376 2389 2425 2940 2987 2790 3321 3007 2781 2901 3099 2794 2901 2863 2644 2683 2957 2477 2513 2824 2991 3089 3023 3023 3142 2987 3129 2695 3173
110 184 304 142 140 56 25 85 168 101 105 192 295 267 831 2389 3128 2904 2707 3013 2910 2960 2987 2886 2644 2841 2499 2046 2613 2977 2803 2353 2132 2364 2680 2936 3260 2490 2934 2523 2947 2850 2975
30 97 97 156 201 143 145 184 98 188 299 343 198 29 379 857 1377 2278 2629 3405 3012 2943 2802 2880 2788 2523 2362 1387 1121 2093 2694 2831 2869 2422 2860 3230 2470 2044 1427 1317 1455 1541 3020
21 17 41 63 53 102 45 86 135 108 157 40 193 155 146 35 513 1540 2471 3029 2994 3037 2933 2888 2845 2796 2660 1647 675 587 1933 2666 2932 2912 2711 2710 1720 2222 2176 1243 1076 1040 1021
0 0 0 0 0 3 15 0 74 76 60 69 90 117 162 268 533 748 930 1350 2534 2778 2769 2670 2853 3051 2905 2143 1591 1121 961 2099 2056 2506 2804 2678 2441 2747 2769 2970 2466 1663 1656
0 0 0 0 3 61 57 65 22 34 30 34 62 83 246 215 203 206 525 637 837 1938 2238 2231 2442 2785 2984 2409 2026 1592 1107 1201 1727 2027 2090 2083 2936 2518 1963 2019 2698 3062 2960
0 0 0 0 0 0 0 17 53 88 86 10 39 32 55 39 209 201 188 352 528 742 1574 1961 2189 2058 2505 2689 2525 1898 1598 1533 1305 1230 1530 1563 1564 1401 1754 2167 2191 2129 2011
0 0 0 0 0 0 0 0 0 0 0 2 56 64 62 42 4 42 85 126 432 487 539 732 1930 2037 2185 2398 2281 2276 2005 1909 1742 1568 1402 1249 1115 1117 1114 1081 1887 2135 1927
0 0 0 0 0 0 0 0 0 1 0 0 0 16 43 73 67 18 11 33 53 60 122 352 1016 1769 2197 2168 1738 1697 1722 1881 2036 1921 1641 1625 1307 1126 905 746 499 669 1406
0 0 0 0 0 0 0 0 12 9 9 0 0 0 0 0 0 2 2 0 6 25 39 54 21 460 1611 1923 2013 1763 1347 1523 1537 1911 1797 1609 1356 1131 1035 784 633 532 458
0 0 0 0 0 2 1 0 8 16 13 12 11 8 0 0 0 0 0 0 0 0 0 0 0 549 1754 1896 2089 1848 1123 1050 1081 1278 1366 1404 1357 1172 1005 919 900 862 703
1 0 0 0 0 8 8 1 10 7 0 0 0 0 0 0 0 0 0 0 0 0 0 0 0 0 16 628 440 666 852 626 700 971 1128 1279 1289 1254 1217 1019 1096 1101 927
6 3 1 0 1 7 8 22 21 15 0 0 0 0 0 0 0 0 0 0 0 0 0 0 0 0 0 0 139 268 221 232 328 416 951 1175 1603 1855 1780 1416 1215 1227 1331
CIN
-6 -7 -28 -12 -26 -5 -1 -1 -4 -12 -6 -5 -4 -51 -13 -24 -29 -17 -33 -75 -142 -1 -17 -15 -12 -57 -70 -91 -14 -12 -34 -30 -69 -24 -33 -40 -30 -38 -42 -62 -49 -42 -35
-12 -18 -10 -3 -1 -10 -9 -3 -3 -4 -3 -8 -13 -53 -8 -12 -41 -70 -20 -47 -28 -8 -4 -74 -18 -51 -19 -11 -4 -15 -40 -32 -64 -26 -34 -58 -50 -45 -46 -48 -20 -30 -72
-17 -11 -8 -27 -12 -38 -10 -4 -3 -5 -9 -4 -11 -53 -22 -73 -11 -148 -31 -5 -18 -5 -5 -24 -10 -61 -17 -15 -11 -28 -53 -25 -26 -30 -17 -57 -28 -45 -64 -44 -73 -71 -46
-49 -12 -13 -29 -9 -93 -3 -7 -2 -4 -13 -4 -14 -4 -7 -41 -25 -24 -33 -7 -8 -12 -22 -3 -7 -26 -142 -19 -16 -11 -44 -53 -40 -43 -29 -46 -51 -25 -28 -52 -89 -72 -116
-17 -12 -5 -8 -15 -26 -6 -4 -5 -1 -7 -9 -8 -13 -7 -86 -147 -68 -73 -24 -7 -11 -12 -12 -1 -14 -134 -146 -55 -6 -10 -27 -25 -19 -24 -25 -38 -48 -31 -60 -91 -107 -137
-6 -2 -36 -18 -23 -29 -2 -3 -3 -2 -2 -11 -1 -6 -10 -113 -104 -53 -132 -33 -15 -7 -16 -9 -9 -13 -18 -40 -68 -5 -7 -11 -21 -43 -40 -39 -61 -65 -62 -53 -55 -49 -45
-26 -4 -10 -8 -13 -17 -4 -5 -1 0 0 -4 -2 -7 -6 -2 -55 -58 -88 -12 -45 -13 -18 -6 -3 -24 -12 -37 -6 -2 -10 -10 -21 -10 -42 -42 -85 -48 -51 -57 -46 -58 -56
-11 -74 -1 -5 -20 -36 -25 -9 -9 0 0 -1 -2 -8 -7 -23 -26 -123 -36 -121 -169 -125 -18 -9 -7 -3 -6 -3 -6 -7 -19 -15 -16 -20 -27 -37 -103 -61 -102 -49 -60 -46 -38
0 -10 -7 -2 -87 -20 -16 -10 -24 -7 0 0 -1 -2 -7 -21 -3 -14 -11 -71 -112 -56 -36 -13 -4 -6 -25 -5 -6 -27 -12 -14 -23 -9 -31 -33 -59 -59 -64 -42 -38 -52 -31
-20 -37 -16 -7 -151 -21 -6 -3 -22 -21 -13 -1 0 0 -1 -3 -14 -11 -9 -3 -21 -38 -139 -42 -22 -7 -29 -15 -7 -12 -71 -46 -48 -20 -27 -30 -84 -62 -49 -60 -45 -31 -28
-82 -26 -66 -2 0 -3 -190 -20 -10 -13 -5 0 -2 -2 -2 0 -7 -9 -2 -9 -4 -21 -18 -8 -37 -10 -6 -5 -7 -16 -25 -10 -20 -16 -15 -33 -19 -33 -34 -87 -73 -34 -32
-81 -67 0 -18 -6 -21 -21 -7 -19 -3 -11 -2 -6 -3 -3 -2 -2 -3 -1 -2 -7 -6 -14 -31 -18 -40 -18 -26 -9 -14 -11 -13 -9 -14 -17 -8 -6 -18 -28 -43 -64 -31 -42
-84 -59 -60 -12 -23 -64 -39 -28 -30 -11 0 -3 -2 0 -2 -2 -2 -8 -4 -3 -3 -3 -4 -7 -6 -4 -12 -10 -11 -8 -9 -11 -11 -11 -8 -13 -8 -12 -32 -24 -22 -42 -40
-73 -68 -68 -62 -70 -25 -33 -14 -25 -120 -10 -14 0 -6 -4 -5 -3 -9 -10 -9 -3 -3 -4 -5 -10 -8 -6 -5 -10 -11 -7 -18 -7 -11 -15 -12 -16 -20 -14 -11 -20 -30 -25
-100 -69 -39 -59 -39 -43 -75 -57 -26 -30 -52 -23 -13 -26 0 -12 -2 -9 -11 -6 -6 -3 -5 -3 -7 -10 -6 -1 -11 -8 -15 -38 -34 -19 -10 -12 -14 -6 -17 -13 -22 -29 -20
-129 -76 -83 -43 -19 -21 -17 -5 -3 -21 -14 -15 -37 -149 -11 -45 -22 -12 -7 -1 -3 -6 -7 -3 -2 -9 0 -5 -5 -20 -13 -15 -18 -33 -16 -10 -11 -9 -1 -17 -20 -11 -19
-124 -114 -101 -87 -99 -55 -74 -30 -24 -46 -53 -63 -12 -49 -66 -47 -35 -5 -2 -1 -3 -3 -3 -1 -3 -3 -6 -18 -27 -27 -23 -12 -22 -16 -18 -6 -2 -7 -53 -30 -29 -45 -49
0 0 0 0 0 -47 -110 0 -28 -44 -52 -45 -27 -72 -57 -17 -27 -28 -29 -13 -3 -2 -5 -2 -4 -4 -3 -11 -27 -30 -121 -29 -32 -25 -32 -17 -20 -28 -19 -17 -21 -54 -87
0 0 0 0 -9 -29 -47 -54 -58 -41 -48 -35 -29 -41 -30 -5 -22 -44 -27 -21 -18 0 -2 -6 -4 -4 -3 -1 -9 -34 -36 -52 -41 -31 -36 -41 -17 -19 -24 -44 -24 -13 -15
0 0 0 0 0 0 0 -26 -15 -10 -17 -40 -30 -29 -12 -28 -16 -26 -41 -11 -11 -18 0 0 -2 -2 -5 -1 -1 -4 -19 -30 -43 -62 -64 -40 -38 -45 -16 -1 -27 -37 -39
0 0 0 0 0 0 0 0 0 0 0 -1 -27 -27 -22 -29 -23 -67 -60 -36 -6 -25 -48 -17 -1 -4 -4 -3 -2 -2 -4 -9 -9 -10 -27 -56 -76 -74 -58 -54 -52 -26 -40
0 0 0 0 0 0 0 0 0 0 0 0 0 -4 -15 -22 -12 -17 -33 -30 -44 -53 -137 -68 -16 -1 -1 -5 -9 -6 -6 -4 -3 -3 -15 -16 -8 -22 -62 -64 -105 -129 -49
0 0 0 0 0 0 0 0 0 0 0 0 0 0 0 0 0 -2 -2 0 -17 -23 -30 -25 -99 -51 -1 -4 -12 -9 -22 -16 -10 -5 -20 -36 -36 -32 -8 -21 -47 -43 -33
0 0 0 0 0 0 0 0 0 0 0 0 0 0 0 0 0 0 0 0 0 0 0 0 0 -5 -9 -10 -5 -8 -1 -10 -6 -3 -5 -21 -30 -49 -55 -44 -56 -44 -35
0 0 0 0 0 0 0 0 0 0 0 0 0 0 0 0 0 0 0 0 0 0 0 0 0 0 -64 -41 -29 -26 -5 -24 -34 -53 -45 -13 -6 -25 -34 -93 -79 -53 -47
-1 0 0 0 0 0 0 0 0 0 0 0 0 0 0 0 0 0 0 0 0 0 0 0 0 0 0 0 -9 -9 -17 -36 -40 -56 -32 -20 -2 0 -2 -29 -61 -65 -39
Wind_Speed
16 9 nan nan nan 16 11 7 12 13 11 4 2 2 2 2 4 3 10 4 8 6 5 6 6 4 9 6 9 9 11 13 13 15 16 15 18 19 19 16 11 17 16
nan 8 13 14 11 16 13 9 11 12 7 2 4 1 3 5 5 6 8 5 5 3 3 8 5 4 9 5 7 6 12 11 9 12 9 14 20 17 16 13 14 20 14
10 10 7 15 14 15 13 12 10 10 4 3 4 6 7 9 5 6 7 5 7 6 4 4 6 1 7 7 8 6 13 11 8 12 15 8 12 16 15 17 13 18 17
nan nan 18 16 12 13 10 13 10 10 4 6 3 3 3 5 5 2 1 3 5 6 5 1 3 7 8 12 7 5 7 11 12 12 9 11 11 12 14 17 15 16 10
8 nan 13 14 18 12 13 14 9 10 7 5 7 5 8 9 9 9 6 3 4 6 4 3 2 5 6 8 9 7 7 9 9 10 11 8 8 11 16 16 18 15 8
11 8 11 17 15 10 nan 17 11 10 10 5 6 6 8 14 4 8 4 2 3 3 3 4 2 7 3 4 3 7 8 11 13 12 13 10 5 15 12 13 12 8 8
7 11 10 16 14 nan 14 17 13 11 11 7 5 5 4 8 16 7 5 5 5 3 5 5 6 4 2 3 3 5 9 9 12 13 12 12 7 11 13 15 13 9 9
15 22 8 13 15 9 10 17 16 12 11 12 8 6 7 11 11 10 3 8 8 12 9 5 4 2 5 2 3 4 4 6 8 14 13 14 12 15 17 12 12 13 8
46 35 4 16 15 11 7 15 18 15 13 13 12 7 7 6 9 5 4 13 14 12 9 4 5 1 1 1 3 3 4 8 9 9 11 11 14 11 16 18 14 7 7
45 45 45 28 15 3 6 14 19 17 16 14 13 10 7 5 7 10 10 17 17 8 23 20 1 3 5 2 3 2 3 5 5 8 10 8 10 13 15 18 16 13 11
42 36 49 40 32 33 30 35 21 20 17 15 16 13 9 8 7 8 11 15 16 13 19 nan 7 5 4 4 2 2 6 4 5 10 13 11 7 11 13 15 14 13 13
47 nan nan nan 34 38 37 40 40 40 20 16 17 16 15 12 11 10 9 13 17 11 12 6 4 7 5 4 1 1 4 5 5 6 9 12 11 10 11 12 13 15 15
47 38 34 34 39 41 42 43 41 43 40 34 16 16 17 17 13 14 12 12 16 12 8 9 10 8 6 4 4 3 4 4 4 7 7 7 9 12 14 14 15 14 13
49 43 40 39 41 39 39 31 35 43 34 45 36 26 16 18 19 18 16 13 14 15 11 10 10 7 6 5 6 7 5 9 6 5 7 8 8 7 7 10 12 14 14
53 52 50 46 44 nan nan nan 42 42 37 32 38 32 38 25 21 26 19 17 15 13 13 12 11 9 7 7 7 7 8 6 6 9 8 7 9 7 9 11 9 9 11
nan nan nan 53 49 49 42 38 nan 33 33 35 35 nan 27 17 30 29 23 21 17 17 16 13 14 12 11 6 10 12 9 7 6 5 6 5 7 5 9 9 6 11 13
nan nan nan nan nan 53 nan nan 41 36 31 nan 30 37 40 nan 34 30 24 24 22 22 18 15 16 16 15 14 15 14 13 12 11 9 8 7 5 5 6 7 7 4 11
nan nan nan nan nan nan nan nan nan nan nan nan nan 32 39 37 34 36 40 37 31 29 24 20 18 20 20 17 16 19 20 16 14 14 11 9 9 11 12 8 9 7 6
nan nan nan nan nan nan nan nan nan nan nan nan nan nan 37 36 24 37 37 36 38 35 28 26 21 20 21 22 20 23 22 20 17 17 15 15 16 13 10 13 11 11 13
nan nan nan nan nan nan nan nan nan nan nan nan nan nan nan nan 40 28 26 37 36 35 35 31 28 22 19 23 23 29 28 22 21 21 19 18 15 18 20 16 14 11 12
nan nan nan nan nan nan nan nan nan nan nan nan nan nan nan nan nan nan nan 31 39 37 34 34 31 28 28 27 27 28 32 28 28 27 25 24 21 17 17 21 17 11 18
nan nan nan nan nan nan nan nan nan nan nan nan nan nan nan nan nan nan nan nan nan nan 28 35 32 27 28 29 33 34 31 31 33 31 32 32 30 25 22 22 17 16 23
nan nan nan nan nan nan nan nan nan nan nan nan nan nan nan nan nan nan nan nan nan nan nan nan nan 35 29 35 36 36 33 30 38 36 34 34 44 45 37 27 25 30 27
nan nan nan nan nan nan nan nan nan nan nan nan nan nan nan nan nan nan nan nan nan nan nan nan nan 33 35 41 49 51 50 42 41 39 38 39 39 38 37 42 38 36 34
nan nan nan nan nan nan nan nan nan nan nan nan nan nan nan nan nan nan nan nan nan nan nan nan nan nan nan 33 38 42 45 42 39 42 40 39 38 38 38 37 36 41 40
nan nan nan nan nan nan nan nan nan nan nan nan nan nan nan nan nan nan nan nan nan nan nan nan nan nan nan nan 38 40 42 33 38 45 41 35 38 34 32 35 36 37 36
Wind_Direction
289 214 nan nan nan 272 264 237 244 256 247 225 105 106 249 157 131 75 25 342 64 83 102 84 92 160 94 94 90 90 95 96 89 93 100 99 96 99 93 89 102 101 104
nan 270 284 284 268 274 274 256 249 265 246 234 138 192 240 194 189 147 105 352 23 68 137 139 106 325 84 110 131 124 118 108 104 117 97 115 107 106 110 129 123 129 117
219 290 264 265 263 232 276 271 256 269 234 190 193 250 193 212 171 167 61 337 14 21 4 67 155 221 138 126 102 119 104 124 130 102 114 110 113 125 124 125 142 123 128
nan nan 304 305 288 263 268 271 263 274 224 181 221 110 189 241 201 69 162 321 341 14 4 46 252 238 194 156 126 125 132 140 138 134 114 112 111 129 141 145 138 119 130
317 nan 317 313 293 265 267 268 264 270 254 190 173 222 221 195 217 164 218 311 306 332 9 334 252 260 218 131 161 157 165 148 151 146 133 127 131 133 151 145 139 131 124
307 324 305 307 294 294 nan 275 269 256 251 214 203 184 236 265 133 155 231 120 282 290 308 333 274 243 251 151 190 138 166 170 165 164 165 165 159 158 163 164 142 145 126
217 314 304 313 324 nan 287 276 276 265 261 254 218 182 233 234 259 207 169 153 220 264 324 286 269 289 278 85 177 161 176 161 165 172 175 161 142 169 165 178 162 166 152
293 238 271 288 280 276 252 281 280 263 257 264 244 225 177 240 264 315 210 219 190 218 194 223 258 223 302 156 254 175 174 149 157 166 172 172 170 170 173 178 199 176 171
212 216 219 271 245 301 263 280 280 269 258 255 243 239 222 208 246 280 277 264 252 238 213 248 290 224 252 247 263 167 156 192 163 172 166 169 172 172 182 173 192 210 190
235 229 213 219 255 209 261 277 276 274 263 253 250 236 257 243 220 204 240 235 258 239 243 180 122 331 313 212 242 176 206 255 155 164 151 173 161 167 180 186 183 187 186
233 223 241 221 216 229 216 201 266 263 253 247 252 243 236 259 249 228 234 248 244 250 272 nan 245 203 283 290 276 156 187 217 209 176 174 160 180 163 177 193 181 186 196
243 nan nan nan 215 221 218 220 216 219 249 246 242 247 247 240 266 266 249 257 265 256 283 270 301 323 300 296 302 261 202 269 249 208 188 175 177 169 172 181 180 193 206
243 247 247 233 236 246 208 211 227 223 209 207 266 254 249 249 244 267 269 268 273 262 233 233 249 247 222 223 278 204 175 238 246 249 236 197 197 191 191 187 195 200 211
245 243 240 239 243 242 221 214 226 231 207 213 209 209 259 257 256 248 258 259 264 275 267 231 258 262 258 259 269 279 229 208 210 231 245 253 250 246 232 202 204 208 215
242 240 239 241 245 nan nan nan 229 226 219 202 211 220 213 191 231 237 231 240 252 257 258 255 236 256 243 237 255 266 272 253 207 196 215 235 256 287 272 261 245 251 242
nan nan nan 241 244 248 252 256 nan 212 224 228 220 nan 233 226 209 214 215 226 232 238 247 248 246 230 225 228 259 261 243 269 274 246 212 203 229 266 289 291 290 277 265
nan nan nan nan nan 244 nan nan 254 246 234 nan 231 225 227 nan 214 208 217 229 234 230 232 241 245 238 229 210 230 243 233 234 240 245 235 212 207 300 304 328 338 328 315
nan nan nan nan nan nan nan nan nan nan nan nan nan 240 234 239 230 224 222 217 223 229 232 233 236 238 235 242 229 238 231 222 228 228 247 250 233 225 250 259 278 291 290
nan nan nan nan nan nan nan nan nan nan nan nan nan nan 251 242 234 237 230 224 226 225 226 226 227 238 241 248 251 250 236 231 225 234 237 243 247 259 250 253 253 257 280
nan nan nan nan nan nan nan nan nan nan nan nan nan nan nan nan 243 241 237 232 229 230 228 225 223 223 229 247 262 262 245 238 240 237 239 244 247 256 261 265 266 274 274
nan nan nan nan nan nan nan nan nan nan nan nan nan nan nan nan nan nan nan 240 231 226 230 226 226 225 229 229 248 262 257 250 243 243 243 249 268 262 265 277 274 283 268
nan nan nan nan nan nan nan nan nan nan nan nan nan nan nan nan nan nan nan nan nan nan 240 238 239 241 244 243 241 253 262 255 249 246 244 244 252 274 287 280 293 283 275
nan nan nan nan nan nan nan nan nan nan nan nan nan nan nan nan nan nan nan nan nan nan nan nan nan 244 254 242 262 252 253 253 250 248 250 251 258 253 255 267 265 266 271
nan nan nan nan nan nan nan nan nan nan nan nan nan nan nan nan nan nan nan nan nan nan nan nan nan 254 258 262 238 238 246 248 249 242 244 249 250 246 248 251 261 268 276
nan nan nan nan nan nan nan nan nan nan nan nan nan nan nan nan nan nan nan nan nan nan nan nan nan nan nan 242 246 240 244 242 241 242 249 251 251 254 256 257 259 264 268
nan nan nan nan nan nan nan nan nan nan nan nan nan nan nan nan nan nan nan nan nan nan nan nan nan nan nan nan 238 245 250 249 246 249 247 250 249 248 254 259 260 263 265